User: anonymous   Login
Location: Laverne
(36.7100°N, 99.8930°W)
Time: 12:25:29
(UTC-05:00)
Language:

Iridium 32 - Orbit

View from above orbital plane
View from above orbital plane
View from above satellite
View from above satellite

Ground track
Ground track

The orbit data is extracted from the following two-line orbital elements,

1 24945U 97051B   17294.43169150  .00000158  00000-0  49199-4 0  9998
2 24945  86.3981 234.2953 0002226  80.2569 279.8878 14.34216296 52511
Epoch (UTC): 21 October 2017 10:21:38
Eccentricity: 0.0002226
inclination: 86.3981°
perigee height: 776 km
apogee height: 779 km
right ascension of ascending node: 234.2953°
argument of perigee: 80.2569°
revolutions per day: 14.34216296
mean anomaly at epoch: 279.8878°
orbit number at epoch: 5251

The dashed part of the orbit path shows where the satellite is in the earth's shadow,  

DLR